Location: Asheville, NC
(35.6000°N, 82.5500°W)
Time: 03:48:06
(UTC-05:00)

N. Korean satellite - Pass Details

Date: 16 December 2017
Orbit: 458 x 515 km, 97.2° (Epoch: 20 January)

Event Time Altitude Azimuth Distance (km) Brightness Sun altitude
Rises 06:33:46 0° 25° (NNE) 2,603 10.3 -11.8°
Reaches altitude 10° 06:36:09 10° 39° (NE) 1,704 9.6 -11.4°
Maximum altitude 06:39:13 25° 96° (E) 1,035 9.2 -10.8°
Drops below altitude 10° 06:42:13 10° 153° (SSE) 1,666 10.0 -10.2°
Sets 06:44:30 0° 167° (SSE) 2,530 10.7 -9.8°
